Home > Weather > New Orleans > Past weeks

Flag for USA Past Weather in New Orleans, Louisiana, USA — Yesterday and Last 2 Weeks

Now
89 °F

Sunny.


Feels Like: 98 °F
Forecast: 78 / 90 °F
Wind: 3 mph from Northwest

Location: Lakefront Airport

Current Time: Jul 30, 2016 at 3:53:28 PM

Latest Report: Jul 30, 2016 at 2:53 PM


Visibility: 10 mi

Pressure: 29.99 "Hg

Humidity: 61%

Dew Point: 74 °F

Location of New OrleansLocation

Past Weather in New Orleans — Graph

°F

New Orleans Temperature Yesterday

Maximum temperature yesterday: 92 °F (at 4:53 PM)
Minimum temperature yesterday: 79 °F (at 1:53 AM)
Average temperature yesterday: 84 °F

High & Low Weather Summary for the Past Weeks

 TemperatureHumidityPressure
High94 °F (Jul 21, 1:53 PM)90% (Jul 15, 11:53 PM)30.23 "Hg (Jul 15, 11:53 PM)
Low77 °F (Jul 15, 11:53 PM)44% (Jul 19, 2:53 PM)29.87 "Hg (Jul 26, 2:53 AM)
Average84 °F73%30.03 "Hg
* Reported Jul 15 1:53 PM — Jul 30 1:53 PM, New Orleans, Weather by CustomWeather, © 2016

Note: Actual official high and low records may vary slightly from our data, if they occured in-between our weather recording intervals... More about our weather records

Advertising

New Orleans Weather History for the Previous 24 Hours

Scroll right to see more
 ConditionsComfort  
Time TempWeatherWind HumidityBarometerVisibility
1:53 PM
Sat, Jul 30
89 °FSunny.5 mph63%30.01 "Hg10 mi
12:53 PM91 °FScattered clouds.6 mph60%30.03 "Hg10 mi
11:53 AM89 °FSunny.7 mph65%30.04 "Hg10 mi
10:53 AM88 °FSunny.8 mph67%30.04 "Hg10 mi
9:53 AM88 °FSunny.8 mph65%30.04 "Hg10 mi
8:53 AM86 °FSunny.7 mph72%30.03 "Hg10 mi
7:53 AM84 °FSunny.6 mph80%30.03 "Hg10 mi
6:53 AM82 °FClear.5 mph82%30.01 "Hg10 mi
5:53 AM82 °FClear.7 mph82%30.00 "Hg10 mi
4:53 AM82 °FClear.5 mph82%29.99 "Hg10 mi
3:53 AM83 °FClear.7 mph79%29.98 "Hg10 mi
2:53 AM83 °FClear.7 mph79%29.99 "Hg10 mi
1:53 AM83 °FClear.5 mph79%29.99 "Hg10 mi
12:53 AM83 °FClear.5 mph74%30.00 "Hg10 mi
11:53 PM
Fri, Jul 29
82 °FClear.5 mph77%29.99 "Hg10 mi
10:53 PM83 °FClear.6 mph77%30.01 "Hg10 mi
9:53 PM84 °FClear.8 mph70%30.00 "Hg10 mi
8:53 PM83 °FSunny.8 mph72%29.98 "Hg10 mi
7:53 PM84 °FSunny.9 mph70%29.97 "Hg10 mi
6:53 PM83 °FSunny.7 mph72%29.96 "Hg10 mi
5:49 PM85 °FScattered clouds.14 mph68%29.97 "Hg10 mi
4:53 PM92 °FScattered clouds.3 mph46%29.96 "Hg10 mi
3:53 PM90 °FSunny.5 mph59%29.97 "Hg10 mi
Weather by CustomWeather, © 2016

See weather overviewHow to use our weather pages